Location: Buckhorn Peak
(37.6641°N, 120.1241°W)
Time: 01:37:59
(UTC+00:00)

BlueWalker 3 - Pass Details

Date: 20 December 2025
Orbit: 452 x 463 km, 53.2° (Epoch: 13 January)

Event Time Altitude Azimuth Distance (km) Brightness Sun altitude
Rises 13:57:23 0° 214° (SW) 2,443 5.3 -14.2°
Reaches altitude 10° 13:59:33 10° 209° (SSW) 1,577 4.4 -13.8°
Maximum altitude 14:02:59 49° 133° (SE) 592 2.7 -13.2°
Drops below altitude 10° 14:06:27 10° 58° (ENE) 1,592 5.0 -12.5°
Sets 14:08:38 0° 53° (NE) 2,471 5.9 -12.1°
